Astoria, OR

8:16 AM PDT on July 20, 2017 (GMT -0700)
Astoria Regional

Weather History for KAST - November, 2013

Change the Weather History Date:

Tuesday, November 5, 2013

  Actual Average Record
Temperature  
Mean Temperature 52 °F 49 °F  
Max Temperature 54 °F 56 °F 71 °F (1923)
Min Temperature 49 °F 42 °F 29 °F (1971)
Degree Days  
Heating Degree Days 13 16  
Month to date heating degree days 74 79  
Since 1 July heating degree days 891 946  
Cooling Degree Days 0 0  
Month to date cooling degree days 0 0  
Year to date cooling degree days 9 12  
Moisture  
Dew Point 50 °F    
Average Humidity 92    
Maximum Humidity 100    
Minimum Humidity 83    
Precipitation  
Precipitation 0.07 in 0.32 in 2.80 in (2006)
Month to date precipitation 1.62 1.54  
Year to date precipitation 50.72 47.76  
Snow  
Snow 0.00 in - - ()
Snow Depth 0.00 in    
Sea Level Pressure  
Sea Level Pressure 30.11 in    
Wind  
Wind Speed 8 mph (SW)    
Max Wind Speed 20 mph    
Max Gust Speed 28 mph    
Visibility 7 miles    
Events Rain    
T = Trace of Precipitation, MM = Missing Value Source: NWS Daily Summary

Daily Weather History Graph

Daily Weather History Graph

Search for Another Location

Airport or City:

Trip Planner

Search our weather history database for the weather conditions in past years. The results will help you decide how hot, cold, wet, or windy it might be!

Date:

Astronomy

Nov. 05, 2013 Rise Set
Actual Time 7:02 AM PST 4:54 PM PST
Civil Twilight 6:30 AM PST 5:26 PM PST
Nautical Twilight 5:55 AM PST 6:02 PM PST
Astronomical Twilight 5:20 AM PST 6:37 PM PST
Moon 9:28 AM PST (11/5) 6:57 PM PST (11/5)
Length of Visible Light 10h 55m
Length of Day
9h 52m
Waxing Crescent, 7% of the Moon is Illuminated
Nov 5
Waxing Crescent
Nov 9
First Quarter
Nov 17
Full
Nov 25
Last Quarter
Dec 2
New

Hourly Weather History & Observations

Time (PST) Temp. Dew Point Humidity Pressure Visibility Wind Dir Wind Speed Gust Speed Precip Events Conditions
12:44 AM 51.8 °F 50.0 °F 94% 30.03 in 6.0 mi South 10.4 mph - N/A   Overcast
12:55 AM 52.0 °F 50.0 °F 93% 30.03 in 5.0 mi South 11.5 mph 24.2 mph N/A   Overcast
1:51 AM 51.8 °F 50.0 °F 94% 30.02 in 4.0 mi SSW 13.8 mph 26.5 mph N/A   Overcast
1:55 AM 52.0 °F 50.0 °F 93% 30.02 in 3.0 mi South 17.3 mph 27.6 mph N/A   Overcast
2:25 AM 51.8 °F 51.8 °F 100% 30.03 in 2.5 mi SSW 19.6 mph 27.6 mph 0.00 in Rain Light Rain
2:55 AM 52.0 °F 50.0 °F 93% 30.03 in 4.0 mi SSW 12.7 mph 26.5 mph 0.02 in Rain Light Rain
3:34 AM 51.8 °F 51.8 °F 100% 30.03 in 2.5 mi SSW 11.5 mph 23.0 mph 0.01 in Rain Light Rain
3:48 AM 51.8 °F 51.8 °F 100% 30.03 in 1.8 mi SSW 9.2 mph 17.3 mph 0.01 in Rain Light Rain
3:55 AM 52.0 °F 51.1 °F 97% 30.04 in 1.5 mi SSW 8.1 mph 17.3 mph 0.02 in Rain Light Rain
4:12 AM 53.6 °F 51.8 °F 94% 30.03 in 1.2 mi SSW 9.2 mph - 0.01 in Rain Light Rain
4:26 AM 51.8 °F 51.8 °F 100% 30.04 in 1.5 mi WSW 6.9 mph - 0.01 in Rain Light Rain
4:30 AM 51.8 °F 51.8 °F 100% 30.04 in 3.0 mi West 6.9 mph - 0.01 in   Overcast
4:45 AM 51.8 °F 51.8 °F 100% 30.04 in 1.8 mi West 6.9 mph - 0.01 in Rain Light Rain
4:55 AM 52.0 °F 51.1 °F 97% 30.04 in 1.8 mi West 5.8 mph - 0.02 in Rain Light Rain
5:01 AM 51.8 °F 51.8 °F 100% 30.04 in 3.0 mi WSW 4.6 mph - 0.00 in Rain Light Rain
5:09 AM 51.8 °F 51.8 °F 100% 30.04 in 10.0 mi SSW 3.5 mph - 0.00 in   Overcast
5:34 AM 51.8 °F 51.8 °F 100% 30.05 in 7.0 mi SW 3.5 mph - 0.00 in   Overcast
5:55 AM 52.0 °F 51.1 °F 97% 30.05 in 9.0 mi SW 5.8 mph - 0.00 in   Overcast
6:55 AM 52.0 °F 51.1 °F 97% 30.06 in 10.0 mi SW 6.9 mph - N/A   Overcast
7:15 AM 51.8 °F 51.8 °F 100% 30.08 in 8.0 mi WSW 6.9 mph - N/A   Overcast
7:43 AM 51.8 °F 51.8 °F 100% 30.08 in 9.0 mi WSW 3.5 mph - 0.00 in   Overcast
7:55 AM 52.0 °F 51.1 °F 97% 30.09 in 10.0 mi WSW 3.5 mph - 0.00 in   Overcast
8:51 AM 51.8 °F 50.0 °F 94% 30.11 in 10.0 mi SW 5.8 mph - N/A   Overcast
8:55 AM 52.0 °F 50.0 °F 93% 30.12 in 9.0 mi SW 4.6 mph - N/A   Overcast
9:06 AM 51.8 °F 51.8 °F 100% 30.11 in 3.0 mi WSW 9.2 mph - 0.00 in Rain Light Rain
9:13 AM 51.8 °F 51.8 °F 100% 30.11 in 2.5 mi SW 8.1 mph - 0.01 in Rain Light Rain
9:17 AM 51.8 °F 51.8 °F 100% 30.12 in 4.0 mi SW 8.1 mph - 0.01 in Rain Light Rain
9:27 AM 51.8 °F 51.8 °F 100% 30.11 in 10.0 mi SW 5.8 mph - 0.01 in   Overcast
9:41 AM 53.6 °F 51.8 °F 94% 30.11 in 10.0 mi SW 8.1 mph - 0.01 in   Overcast
9:55 AM 53.1 °F 51.1 °F 93% 30.13 in 7.0 mi WSW 8.1 mph - 0.01 in   Overcast
10:12 AM 51.8 °F 51.8 °F 100% 30.13 in 2.0 mi West 10.4 mph - 0.00 in Rain Light Rain
10:24 AM 51.8 °F 51.8 °F 100% 30.12 in 5.0 mi SW 4.6 mph - 0.00 in Rain Light Rain
10:55 AM 52.0 °F 50.0 °F 93% 30.14 in 10.0 mi WSW 6.9 mph - 0.00 in   Overcast
11:55 AM 53.1 °F 51.1 °F 93% 30.14 in 10.0 mi SW 11.5 mph - N/A   Overcast
12:55 PM 54.0 °F 48.9 °F 83% 30.14 in 10.0 mi WSW 8.1 mph - N/A   Overcast
1:35 PM 53.6 °F 48.2 °F 82% 30.15 in 10.0 mi WSW 5.8 mph - 0.00 in   Overcast
1:55 PM 52.0 °F 48.9 °F 89% 30.15 in 10.0 mi West 5.8 mph - 0.00 in   Overcast
2:55 PM 53.1 °F 48.0 °F 83% 30.15 in 10.0 mi SW 6.9 mph - N/A   Overcast
3:55 PM 51.1 °F 46.9 °F 86% 30.17 in 10.0 mi SSW 5.8 mph - N/A   Overcast
4:55 PM 50.0 °F 46.9 °F 89% 30.19 in 10.0 mi South 3.5 mph - 0.00 in   Overcast
5:55 PM 48.9 °F 48.0 °F 97% 30.19 in 10.0 mi ESE 4.6 mph - N/A   Overcast
6:55 PM 48.9 °F 46.9 °F 93% 30.21 in 10.0 mi SSE 3.5 mph - N/A   Overcast
7:55 PM 48.9 °F 46.9 °F 93% 30.22 in 10.0 mi Calm Calm - N/A   Overcast
8:55 PM 48.0 °F 46.9 °F 96% 30.22 in 10.0 mi Calm Calm - N/A   Overcast
9:55 PM 46.9 °F 45.0 °F 93% 30.24 in 9.0 mi East 4.6 mph - N/A   Mostly Cloudy
10:55 PM 46.9 °F 46.0 °F 97% 30.24 in 9.0 mi Calm Calm - N/A   Overcast
11:55 PM 46.9 °F 46.0 °F 97% 30.25 in 10.0 mi Calm Calm - N/A   Overcast